,,,PA_Meas_PMT16A,,PR_Meas_QMR101_102,,RH_Meas_QMH101,,SR_Meas_QMS101,,TA_Meas_QMH101,,GenWind,,GenWind,
date,time,status,PA,status,PR,status,RH,status,SR,status,TA,status,DirAvg,status,SpdAvg,
2009-09-16, 00:00:04,VALID,1009.62,VALID,0,VALID,98.7001,VALID,0,VALID,23.384,VALID,51,VALID,0,
2009-09-16, 00:01:04,VALID,1009.6,VALID,0,VALID,98.7078,VALID,0,VALID,23.3645,VALID,51,VALID,0,
2009-09-16, 00:02:04,VALID,1009.6,VALID,0,VALID,98.7001,VALID,0,VALID,23.384,VALID,51,VALID,0,
2009-09-16, 00:03:04,VALID,1009.62,VALID,0,VALID,98.7611,VALID,0,VALID,23.2866,VALID,51,VALID,0,
2009-09-16, 00:04:04,VALID,1009.58,VALID,0,VALID,98.8069,VALID,0,VALID,23.2476,VALID,51,VALID,0,
2009-09-16, 00:05:04,VALID,1009.61,VALID,0,VALID,98.8145,VALID,0,VALID,23.2282,VALID,51,VALID,0,
2009-09-16, 00:06:04,VALID,1009.62,VALID,0,VALID,98.7993,VALID,0,VALID,23.2087,VALID,51,VALID,0,
2009-09-16, 00:07:04,VALID,1009.63,VALID,0,VALID,98.7535,VALID,0,VALID,23.2087,VALID,51,VALID,0,
2009-09-16, 00:08:04,VALID,1009.63,VALID,0,VALID,98.7535,VALID,0,VALID,23.2282,VALID,51,VALID,0,
2009-09-16, 00:09:04,VALID,1009.64,VALID,0,VALID,98.7154,VALID,0,VALID,23.2087,VALID,51,VALID,0,
2009-09-16, 00:10:04,VALID,1009.59,VALID,0,VALID,98.6849,VALID,0,VALID,23.2476,VALID,51,VALID,0,
2009-09-16, 00:11:04,VALID,1009.57,VALID,0,VALID,98.6772,VALID,0,VALID,23.2671,VALID,51,VALID,0,
2009-09-16, 00:12:04,VALID,1009.54,VALID,0,VALID,98.6544,VALID,0,VALID,23.2866,VALID,51,VALID,0,
2009-09-16, 00:13:04,VALID,1009.5,VALID,0,VALID,98.6772,VALID,0,VALID,23.3043,VALID,51,VALID,0,
2009-09-16, 00:14:04,VALID,1009.46,VALID,0,VALID,98.6696,VALID,0.105969,VALID,23.3043,VALID,51,VALID,0,
2009-09-16, 00:15:04,VALID,1009.43,VALID,0,VALID,98.6849,VALID,0,VALID,23.2848,VALID,51,VALID,0,
2009-09-16, 00:16:04,VALID,1009.37,VALID,0,VALID,98.6772,VALID,0,VALID,23.2636,VALID,51,VALID,0,
2009-09-16, 00:17:04,VALID,1009.34,VALID,0,VALID,98.7078,VALID,0,VALID,23.2654,VALID,51,VALID,0,
2009-09-16, 00:18:04,VALID,1009.32,VALID,0,VALID,98.7306,VALID,0,VALID,23.2459,VALID,51,VALID,0,
2009-09-16, 00:19:04,VALID,1009.31,VALID,0,VALID,98.7383,VALID,0,VALID,23.2264,VALID,51,VALID,0,
2009-09-16, 00:20:04,VALID,1009.25,VALID,0,VALID,98.7383,VALID,0,VALID,23.2264,VALID,51,VALID,0,
2009-09-16, 00:21:04,VALID,1009.23,VALID,0,VALID,98.723,VALID,0,VALID,23.2476,VALID,51,VALID,0,
2009-09-16, 00:22:04,VALID,1009.2,VALID,0,VALID,98.723,VALID,0,VALID,23.2087,VALID,51,VALID,0,
2009-09-16, 00:23:04,VALID,1009.18,VALID,0,VALID,98.7078,VALID,0,VALID,23.2087,VALID,51,VALID,0,
2009-09-16, 00:24:04,VALID,1009.18,VALID,0,VALID,98.7078,VALID,0,VALID,23.1892,VALID,51,VALID,0,
2009-09-16, 00:25:04,VALID,1009.15,VALID,0,VALID,98.7078,VALID,0,VALID,23.2087,VALID,51,VALID,0,
2009-09-16, 00:26:04,VALID,1009.15,VALID,0,VALID,98.6772,VALID,0,VALID,23.2282,VALID,51,VALID,0,
2009-09-16, 00:27:04,VALID,1009.17,VALID,0,VALID,98.6849,VALID,0,VALID,23.2476,VALID,51,VALID,0,
2009-09-16, 00:28:04,VALID,1009.18,VALID,0,VALID,98.6772,VALID,0,VALID,23.2476,VALID,51,VALID,0,
2009-09-16, 00:29:04,VALID,1009.18,VALID,0,VALID,98.7001,VALID,0,VALID,23.2282,VALID,51,VALID,0,
2009-09-16, 00:30:04,VALID,1009.17,VALID,0,VALID,98.7306,VALID,0,VALID,23.1874,VALID,51,VALID,0,
2009-09-16, 00:31:04,VALID,1009.15,VALID,0,VALID,98.7078,VALID,0,VALID,23.2087,VALID,51,VALID,0,
2009-09-16, 00:32:04,VALID,1009.12,VALID,0,VALID,98.7154,VALID,0,VALID,23.1892,VALID,51,VALID,0,
2009-09-16, 00:33:04,VALID,1009.09,VALID,0,VALID,98.7306,VALID,0,VALID,23.1874,VALID,51,VALID,0,
2009-09-16, 00:34:04,VALID,1009.06,VALID,0,VALID,98.6925,VALID,0,VALID,23.1892,VALID,51,VALID,0,
2009-09-16, 00:35:04,VALID,1009.01,VALID,0,VALID,98.6772,VALID,0,VALID,23.2069,VALID,51,VALID,0,
2009-09-16, 00:36:04,VALID,1009.01,VALID,0,VALID,98.6696,VALID,0,VALID,23.2282,VALID,51,VALID,0,
2009-09-16, 00:37:04,VALID,1008.99,VALID,0,VALID,98.6696,VALID,0,VALID,23.2069,VALID,51,VALID,0,
2009-09-16, 00:38:04,VALID,1008.98,VALID,0,VALID,98.7001,VALID,0,VALID,23.2087,VALID,51,VALID,0,
2009-09-16, 00:39:04,VALID,1008.95,VALID,0,VALID,98.6849,VALID,0,VALID,23.2282,VALID,51,VALID,0,
2009-09-16, 00:40:04,VALID,1008.93,VALID,0,VALID,98.723,VALID,0,VALID,23.1892,VALID,51,VALID,0,
2009-09-16, 00:41:04,VALID,1008.91,VALID,0,VALID,98.723,VALID,0,VALID,23.1892,VALID,51,VALID,0,
2009-09-16, 00:42:04,VALID,1008.9,VALID,0,VALID,98.6849,VALID,0,VALID,23.1892,VALID,51,VALID,0,
2009-09-16, 00:43:04,VALID,1008.89,VALID,0,VALID,98.6849,VALID,0,VALID,23.1679,VALID,51,VALID,0,
2009-09-16, 00:44:04,VALID,1008.89,VALID,0,VALID,98.7078,VALID,0,VALID,23.1502,VALID,51,VALID,0,
2009-09-16, 00:45:04,VALID,1008.87,VALID,0,VALID,98.723,VALID,0,VALID,23.129,VALID,51,VALID,0,
2009-09-16, 00:46:04,VALID,1008.88,VALID,0,VALID,98.723,VALID,0,VALID,23.129,VALID,51,VALID,0,
2009-09-16, 00:47:04,VALID,1008.91,VALID,0,VALID,98.7306,VALID,0,VALID,23.1095,VALID,51,VALID,0,
2009-09-16, 00:48:04,VALID,1008.89,VALID,0,VALID,98.723,VALID,0,VALID,23.1112,VALID,51,VALID,0,
2009-09-16, 00:49:04,VALID,1008.91,VALID,0,VALID,98.7078,VALID,0,VALID,23.1095,VALID,51,VALID,0,
2009-09-16, 00:50:04,VALID,1008.93,VALID,0,VALID,98.7154,VALID,0,VALID,23.1112,VALID,51,VALID,0,
2009-09-16, 00:51:04,VALID,1008.93,VALID,0,VALID,98.7001,VALID,0,VALID,23.1112,VALID,51,VALID,0,
2009-09-16, 00:52:04,VALID,1008.97,VALID,0,VALID,98.6925,VALID,0,VALID,23.1112,VALID,51,VALID,0,
2009-09-16, 00:53:04,VALID,1008.97,VALID,0,VALID,98.7078,VALID,0,VALID,23.0918,VALID,51,VALID,0,
2009-09-16, 00:54:04,VALID,1008.99,VALID,0,VALID,98.7001,VALID,0,VALID,23.0918,VALID,51,VALID,0,
2009-09-16, 00:55:04,VALID,1008.99,VALID,0,VALID,98.6849,VALID,0,VALID,23.0918,VALID,51,VALID,0,
2009-09-16, 00:56:04,VALID,1008.99,VALID,0,VALID,98.7001,VALID,0,VALID,23.1112,VALID,51,VALID,0,
2009-09-16, 00:57:04,VALID,1008.96,VALID,0,VALID,98.7001,VALID,0,VALID,23.0705,VALID,51,VALID,0,
2009-09-16, 00:58:04,VALID,1008.93,VALID,0,VALID,98.7078,VALID,0,VALID,23.113,VALID,51,VALID,0,
2009-09-16, 00:59:04,VALID,1008.94,VALID,0,VALID,98.7154,VALID,0,VALID,23.0511,VALID,51,VALID,0,
2009-09-16, 01:00:04,VALID,1008.97,VALID,0,VALID,98.6696,VALID,0,VALID,23.1112,VALID,51,VALID,0,
2009-09-16, 01:01:04,VALID,1008.96,VALID,0,VALID,98.6772,VALID,0,VALID,23.09,VALID,51,VALID,0,
2009-09-16, 01:02:04,VALID,1008.97,VALID,0,VALID,98.6696,VALID,0,VALID,23.1112,VALID,51,VALID,0,
2009-09-16, 01:03:04,VALID,1008.98,VALID,0,VALID,98.6772,VALID,0,VALID,23.1112,VALID,51,VALID,0,
2009-09-16, 01:04:04,VALID,1008.95,VALID,0,VALID,98.6925,VALID,0,VALID,23.1112,VALID,51,VALID,0,
2009-09-16, 01:05:04,VALID,1008.95,VALID,0,VALID,98.6696,VALID,0,VALID,23.09,VALID,51,VALID,0,
2009-09-16, 01:06:04,VALID,1008.95,VALID,0,VALID,98.662,VALID,0,VALID,23.1307,VALID,51,VALID,0,
2009-09-16, 01:07:04,VALID,1008.91,VALID,0,VALID,98.662,VALID,0,VALID,23.1307,VALID,51,VALID,0,
2009-09-16, 01:08:04,VALID,1008.93,VALID,0,VALID,98.6772,VALID,0,VALID,23.1112,VALID,51,VALID,0,
2009-09-16, 01:09:04,VALID,1008.94,VALID,0,VALID,98.6772,VALID,0,VALID,23.09,VALID,51,VALID,0,
2009-09-16, 01:10:04,VALID,1008.94,VALID,0,VALID,98.6925,VALID,0,VALID,23.09,VALID,51,VALID,0,
2009-09-16, 01:11:04,VALID,1008.95,VALID,0,VALID,98.7154,VALID,0,VALID,23.0918,VALID,51,VALID,0,
2009-09-16, 01:12:04,VALID,1008.96,VALID,0,VALID,98.7154,VALID,0,VALID,23.0918,VALID,51,VALID,0,
2009-09-16, 01:13:04,VALID,1009.02,VALID,0,VALID,98.7001,VALID,0,VALID,23.0723,VALID,51,VALID,0,
2009-09-16, 01:14:04,VALID,1009.02,VALID,0,VALID,98.7306,VALID,0,VALID,23.0723,VALID,51,VALID,0,
2009-09-16, 01:15:04,VALID,1008.99,VALID,0,VALID,98.7383,VALID,0,VALID,23.0138,VALID,51,VALID,0,
2009-09-16, 01:16:04,VALID,1009.01,VALID,0,VALID,98.7535,VALID,0,VALID,22.9926,VALID,51,VALID,0,
2009-09-16, 01:17:04,VALID,1008.99,VALID,0,VALID,98.7535,VALID,0,VALID,22.9749,VALID,51,VALID,0,
2009-09-16, 01:18:04,VALID,1008.98,VALID,0,VALID,98.7383,VALID,0,VALID,22.9749,VALID,51,VALID,0,
2009-09-16, 01:19:04,VALID,1008.98,VALID,0,VALID,98.7383,VALID,0,VALID,22.9554,VALID,51,VALID,0,
2009-09-16, 01:20:04,VALID,1008.96,VALID,0,VALID,98.7535,VALID,0,VALID,22.9554,VALID,51,VALID,0,
2009-09-16, 01:21:04,VALID,1008.96,VALID,0,VALID,98.7688,VALID,0,VALID,22.9164,VALID,51,VALID,0,
2009-09-16, 01:22:04,VALID,1008.98,VALID,0,VALID,98.7535,VALID,0,VALID,22.8952,VALID,51,VALID,0,
2009-09-16, 01:23:04,VALID,1009,VALID,0,VALID,98.7383,VALID,0,VALID,22.9164,VALID,51,VALID,0,
2009-09-16, 01:24:04,VALID,1008.97,VALID,0,VALID,98.7459,VALID,0,VALID,22.8969,VALID,51,VALID,0,
2009-09-16, 01:25:04,VALID,1008.98,VALID,0,VALID,98.723,VALID,0,VALID,22.8757,VALID,51,VALID,0,
2009-09-16, 01:26:04,VALID,1009,VALID,0,VALID,98.7383,VALID,0,VALID,22.8969,VALID,51,VALID,0,
2009-09-16, 01:27:04,VALID,1009.05,VALID,0,VALID,98.7154,VALID,0,VALID,22.8969,VALID,51,VALID,0,
2009-09-16, 01:28:04,VALID,1009.03,VALID,0,VALID,98.7078,VALID,0,VALID,22.8952,VALID,51,VALID,0,
2009-09-16, 01:29:04,VALID,1009.01,VALID,0,VALID,98.7001,VALID,0,VALID,22.9164,VALID,51,VALID,0,
2009-09-16, 01:30:04,VALID,1008.97,VALID,0,VALID,98.6925,VALID,0,VALID,22.9164,VALID,51,VALID,0,
2009-09-16, 01:31:04,VALID,1008.94,VALID,0,VALID,98.6925,VALID,0,VALID,22.9359,VALID,51,VALID,0,
2009-09-16, 01:32:04,VALID,1008.94,VALID,0,VALID,98.6772,VALID,0,VALID,22.9147,VALID,51,VALID,0,
2009-09-16, 01:33:04,VALID,1008.92,VALID,0,VALID,98.6849,VALID,0,VALID,22.9359,VALID,51,VALID,0,
2009-09-16, 01:34:04,VALID,1008.9,VALID,0,VALID,98.6849,VALID,0,VALID,22.8952,VALID,51,VALID,0,
2009-09-16, 01:35:04,VALID,1008.88,VALID,0,VALID,98.6925,VALID,0,VALID,22.9164,VALID,51,VALID,0,
2009-09-16, 01:36:04,VALID,1008.84,VALID,0,VALID,98.6696,VALID,0,VALID,22.9164,VALID,51,VALID,0,
2009-09-16, 01:37:04,VALID,1008.83,VALID,0,VALID,98.6696,VALID,0,VALID,22.9554,VALID,51,VALID,0,
2009-09-16, 01:38:04,VALID,1008.84,VALID,0,VALID,98.6696,VALID,0,VALID,22.9536,VALID,51,VALID,0,
2009-09-16, 01:39:04,VALID,1008.82,VALID,0,VALID,98.6925,VALID,0,VALID,22.9749,VALID,51,VALID,0,
2009-09-16, 01:40:04,VALID,1008.82,VALID,0,VALID,98.6696,VALID,0,VALID,22.9731,VALID,51,VALID,0,
2009-09-16, 01:41:04,VALID,1008.79,VALID,0,VALID,98.662,VALID,0,VALID,22.9536,VALID,51,VALID,0,
2009-09-16, 01:42:04,VALID,1008.77,VALID,0,VALID,98.7001,VALID,0,VALID,22.9536,VALID,51,VALID,0,
2009-09-16, 01:43:04,VALID,1008.78,VALID,0,VALID,98.6772,VALID,0,VALID,22.9536,VALID,51,VALID,0,
2009-09-16, 01:44:04,VALID,1008.76,VALID,0,VALID,98.662,VALID,0,VALID,22.9731,VALID,51,VALID,0,
2009-09-16, 01:45:04,VALID,1008.74,VALID,0,VALID,98.6772,VALID,0,VALID,22.9749,VALID,51,VALID,0,
2009-09-16, 01:46:04,VALID,1008.75,VALID,0,VALID,98.6925,VALID,0,VALID,22.9342,VALID,51,VALID,0,
2009-09-16, 01:47:04,VALID,1008.75,VALID,0,VALID,98.6925,VALID,0,VALID,22.9554,VALID,51,VALID,0,
2009-09-16, 01:48:04,VALID,1008.75,VALID,0,VALID,98.6849,VALID,0,VALID,22.9342,VALID,51,VALID,0,
2009-09-16, 01:49:04,VALID,1008.74,VALID,0,VALID,98.6772,VALID,0,VALID,22.9749,VALID,51,VALID,0,
2009-09-16, 01:50:04,VALID,1008.71,VALID,0,VALID,98.6772,VALID,0,VALID,22.9749,VALID,51,VALID,0,
2009-09-16, 01:51:04,VALID,1008.7,VALID,0,VALID,98.662,VALID,0,VALID,22.9943,VALID,51,VALID,0,
2009-09-16, 01:52:04,VALID,1008.69,VALID,0,VALID,98.6544,VALID,0,VALID,22.9943,VALID,51,VALID,0,
2009-09-16, 01:53:04,VALID,1008.67,VALID,0,VALID,98.662,VALID,0,VALID,22.9943,VALID,51,VALID,0,
2009-09-16, 01:54:04,VALID,1008.68,VALID,0,VALID,98.662,VALID,0,VALID,23.0138,VALID,51,VALID,0,
2009-09-16, 01:55:04,VALID,1008.67,VALID,0,VALID,98.662,VALID,0,VALID,23.0138,VALID,51,VALID,0,
2009-09-16, 01:56:04,VALID,1008.67,VALID,0,VALID,98.662,VALID,0,VALID,23.0333,VALID,51,VALID,0,
2009-09-16, 01:57:04,VALID,1008.67,VALID,0,VALID,98.6544,VALID,0,VALID,23.0138,VALID,51,VALID,0,
2009-09-16, 01:58:04,VALID,1008.65,VALID,0,VALID,98.662,VALID,0,VALID,23.0333,VALID,51,VALID,0,
2009-09-16, 01:59:04,VALID,1008.69,VALID,0,VALID,98.662,VALID,0,VALID,23.0333,VALID,51,VALID,0,
2009-09-16, 02:00:04,VALID,1008.68,VALID,0,VALID,98.662,VALID,0,VALID,23.0333,VALID,51,VALID,0,
2009-09-16, 02:01:04,VALID,1008.69,VALID,0,VALID,98.6544,VALID,0,VALID,23.0121,VALID,51,VALID,0,
2009-09-16, 02:02:04,VALID,1008.67,VALID,0,VALID,98.6467,VALID,0,VALID,23.0528,VALID,51,VALID,0,
2009-09-16, 02:03:04,VALID,1008.67,VALID,0,VALID,98.6391,VALID,0,VALID,23.0511,VALID,51,VALID,0,
2009-09-16, 02:04:04,VALID,1008.67,VALID,0,VALID,98.6162,VALID,0,VALID,23.09,VALID,51,VALID,0,
2009-09-16, 02:05:04,VALID,1008.67,VALID,0,VALID,98.601,VALID,0,VALID,23.09,VALID,51,VALID,0,
2009-09-16, 02:06:04,VALID,1008.63,VALID,0,VALID,98.6162,VALID,0,VALID,23.1307,VALID,51,VALID,0,
2009-09-16, 02:07:04,VALID,1008.62,VALID,0,VALID,98.6086,VALID,0,VALID,23.1307,VALID,51,VALID,0,
2009-09-16, 02:08:04,VALID,1008.58,VALID,0,VALID,98.6696,VALID,0,VALID,23.1307,VALID,51,VALID,0,
2009-09-16, 02:09:04,VALID,1008.55,VALID,0,VALID,98.662,VALID,0,VALID,23.1307,VALID,51,VALID,0,
2009-09-16, 02:10:04,VALID,1008.51,VALID,0,VALID,98.6391,VALID,0,VALID,23.1112,VALID,51,VALID,0,
2009-09-16, 02:11:04,VALID,1008.5,VALID,0,VALID,98.6696,VALID,0,VALID,23.1112,VALID,51,VALID,0,
2009-09-16, 02:12:04,VALID,1008.52,VALID,0,VALID,98.662,VALID,0,VALID,23.0723,VALID,51,VALID,0,
2009-09-16, 02:13:04,VALID,1008.48,VALID,0,VALID,98.6849,VALID,0,VALID,23.0705,VALID,51,VALID,0,
2009-09-16, 02:14:04,VALID,1008.51,VALID,0,VALID,98.662,VALID,0,VALID,23.0511,VALID,51,VALID,0,
2009-09-16, 02:15:04,VALID,1008.53,VALID,0,VALID,98.6772,VALID,0,VALID,23.0511,VALID,51,VALID,0,
2009-09-16, 02:16:04,VALID,1008.52,VALID,0,VALID,98.7001,VALID,0,VALID,23.0528,VALID,51,VALID,0,
2009-09-16, 02:17:04,VALID,1008.52,VALID,0,VALID,98.6849,VALID,0,VALID,23.0528,VALID,51,VALID,0,
2009-09-16, 02:18:04,VALID,1008.53,VALID,0,VALID,98.662,VALID,0,VALID,23.0333,VALID,51,VALID,0,
2009-09-16, 02:19:04,VALID,1008.53,VALID,0,VALID,98.6772,VALID,0,VALID,23.0333,VALID,51,VALID,0,
2009-09-16, 02:20:04,VALID,1008.54,VALID,0,VALID,98.6544,VALID,0,VALID,23.0121,VALID,51,VALID,0,
2009-09-16, 02:21:04,VALID,1008.57,VALID,0,VALID,98.662,VALID,0,VALID,23.0121,VALID,51,VALID,0,
2009-09-16, 02:22:04,VALID,1008.58,VALID,0,VALID,98.6391,VALID,0,VALID,23.0316,VALID,74,VALID,0,
2009-09-16, 02:23:04,VALID,1008.59,VALID,0,VALID,98.6239,VALID,0,VALID,23.0511,VALID,64,VALID,0,
2009-09-16, 02:24:04,VALID,1008.59,VALID,0,VALID,98.6315,VALID,0,VALID,23.0723,VALID,72,VALID,0,
2009-09-16, 02:25:04,VALID,1008.59,VALID,0,VALID,98.6239,VALID,0,VALID,23.1112,VALID,74,VALID,0,
2009-09-16, 02:26:04,VALID,1008.59,VALID,0,VALID,98.6239,VALID,0,VALID,23.1112,VALID,81,VALID,0,
2009-09-16, 02:27:04,VALID,1008.58,VALID,0,VALID,98.6391,VALID,0,VALID,23.1112,VALID,106,VALID,0.0707031,
2009-09-16, 02:28:04,VALID,1008.58,VALID,0,VALID,98.6391,VALID,0,VALID,23.0918,VALID,106,VALID,0.474219,
2009-09-16, 02:29:04,VALID,1008.53,VALID,0,VALID,98.6544,VALID,0,VALID,23.0511,VALID,106,VALID,0.483594,
2009-09-16, 02:30:04,VALID,1008.5,VALID,0,VALID,98.662,VALID,0,VALID,23.0511,VALID,106,VALID,0.238281,
2009-09-16, 02:31:04,VALID,1008.48,VALID,0,VALID,98.6544,VALID,0,VALID,23.0511,VALID,106,VALID,0.278125,
2009-09-16, 02:32:04,VALID,1008.46,VALID,0,VALID,98.6544,VALID,0,VALID,23.0316,VALID,106,VALID,0,
2009-09-16, 02:33:04,VALID,1008.43,VALID,0,VALID,98.6467,VALID,0,VALID,23.0705,VALID,106,VALID,0,
2009-09-16, 02:34:04,VALID,1008.42,VALID,0,VALID,98.6391,VALID,0,VALID,23.0705,VALID,106,VALID,0,
2009-09-16, 02:35:04,VALID,1008.4,VALID,0,VALID,98.6391,VALID,0,VALID,23.0723,VALID,106,VALID,0,
2009-09-16, 02:36:04,VALID,1008.39,VALID,0,VALID,98.6467,VALID,0,VALID,23.0705,VALID,106,VALID,0,
2009-09-16, 02:37:04,VALID,1008.37,VALID,0,VALID,98.6162,VALID,0,VALID,23.09,VALID,106,VALID,0,
2009-09-16, 02:38:04,VALID,1008.34,VALID,0,VALID,98.6162,VALID,0,VALID,23.1112,VALID,106,VALID,0,
2009-09-16, 02:39:04,VALID,1008.34,VALID,0,VALID,98.6086,VALID,0,VALID,23.1095,VALID,106,VALID,0,
2009-09-16, 02:40:04,VALID,1008.29,VALID,0,VALID,98.601,VALID,0,VALID,23.1307,VALID,106,VALID,0,
2009-09-16, 02:41:04,VALID,1008.29,VALID,0,VALID,98.601,VALID,0,VALID,23.1502,VALID,106,VALID,0,
2009-09-16, 02:42:04,VALID,1008.31,VALID,0,VALID,98.6086,VALID,0,VALID,23.129,VALID,106,VALID,0,
2009-09-16, 02:43:04,VALID,1008.34,VALID,0,VALID,98.5857,VALID,0,VALID,23.1485,VALID,106,VALID,0,
2009-09-16, 02:44:04,VALID,1008.36,VALID,0,VALID,98.5934,VALID,0,VALID,23.1892,VALID,106,VALID,0,
2009-09-16, 02:45:04,VALID,1008.4,VALID,0,VALID,98.6086,VALID,0,VALID,23.1679,VALID,106,VALID,0,
2009-09-16, 02:46:04,VALID,1008.4,VALID,0,VALID,98.6315,VALID,0,VALID,23.2087,VALID,106,VALID,0.251953,
2009-09-16, 02:47:04,VALID,1008.39,VALID,0,VALID,98.6239,VALID,0,VALID,23.2087,VALID,104,VALID,0.496094,
2009-09-16, 02:48:04,VALID,1008.39,VALID,0,VALID,98.6467,VALID,0,VALID,23.1485,VALID,104,VALID,0.410547,
2009-09-16, 02:49:04,VALID,1008.41,VALID,0,VALID,98.6162,VALID,0,VALID,23.1679,VALID,104,VALID,0.0777344,
2009-09-16, 02:50:04,VALID,1008.38,VALID,0,VALID,98.6162,VALID,0,VALID,23.1679,VALID,104,VALID,0.127344,
2009-09-16, 02:51:04,VALID,1008.37,VALID,0,VALID,98.6086,VALID,0,VALID,23.2087,VALID,104,VALID,0,
2009-09-16, 02:52:04,VALID,1008.39,VALID,0,VALID,98.5857,VALID,0,VALID,23.2104,VALID,104,VALID,0.230859,
2009-09-16, 02:53:04,VALID,1008.36,VALID,0,VALID,98.6239,VALID,0,VALID,23.1874,VALID,102,VALID,0.345703,
2009-09-16, 02:54:04,VALID,1008.33,VALID,0,VALID,98.6315,VALID,0,VALID,23.1892,VALID,100,VALID,0.172266,
2009-09-16, 02:55:04,VALID,1008.32,VALID,0,VALID,98.6239,VALID,0,VALID,23.1892,VALID,100,VALID,0.112109,
2009-09-16, 02:56:04,VALID,1008.3,VALID,0,VALID,98.6239,VALID,0,VALID,23.1697,VALID,100,VALID,0.0851562,
2009-09-16, 02:57:04,VALID,1008.28,VALID,0,VALID,98.6315,VALID,0,VALID,23.1697,VALID,100,VALID,0,
2009-09-16, 02:58:04,VALID,1008.29,VALID,0,VALID,98.6162,VALID,0,VALID,23.1892,VALID,100,VALID,0,
2009-09-16, 02:59:04,VALID,1008.28,VALID,0,VALID,98.6239,VALID,0,VALID,23.1697,VALID,100,VALID,0,
2009-09-16, 03:00:04,VALID,1008.28,VALID,0,VALID,98.6239,VALID,0,VALID,23.1892,VALID,100,VALID,0,
2009-09-16, 03:01:04,VALID,1008.29,VALID,0,VALID,98.6162,VALID,0,VALID,23.1892,VALID,100,VALID,0,
2009-09-16, 03:02:04,VALID,1008.26,VALID,0,VALID,98.6086,VALID,0,VALID,23.1892,VALID,100,VALID,0.2,
2009-09-16, 03:03:04,VALID,1008.23,VALID,0,VALID,98.6086,VALID,0,VALID,23.1892,VALID,100,VALID,0,
2009-09-16, 03:04:04,VALID,1008.19,VALID,0,VALID,98.6086,VALID,0,VALID,23.1892,VALID,100,VALID,0,
2009-09-16, 03:05:04,VALID,1008.18,VALID,0,VALID,98.601,VALID,0,VALID,23.2087,VALID,100,VALID,0,
2009-09-16, 03:06:04,VALID,1008.18,VALID,0,VALID,98.6086,VALID,0,VALID,23.2087,VALID,100,VALID,0,
2009-09-16, 03:07:04,VALID,1008.17,VALID,0,VALID,98.6315,VALID,0,VALID,23.1892,VALID,99,VALID,0,
2009-09-16, 03:08:04,VALID,1008.18,VALID,0,VALID,98.6239,VALID,0,VALID,23.1697,VALID,48,VALID,0.315625,
2009-09-16, 03:09:04,VALID,1008.2,VALID,0,VALID,98.6239,VALID,0,VALID,23.1892,VALID,46,VALID,0.272656,
2009-09-16, 03:10:04,VALID,1008.22,VALID,0,VALID,98.6315,VALID,0,VALID,23.1697,VALID,46,VALID,0,
2009-09-16, 03:11:04,VALID,1008.21,VALID,0,VALID,98.6391,VALID,0,VALID,23.1697,VALID,47,VALID,0,
2009-09-16, 03:12:04,VALID,1008.24,VALID,0,VALID,98.6391,VALID,0,VALID,23.1485,VALID,46,VALID,0,
2009-09-16, 03:13:04,VALID,1008.25,VALID,0,VALID,98.6391,VALID,0,VALID,23.1502,VALID,46,VALID,0,
2009-09-16, 03:14:04,VALID,1008.26,VALID,0,VALID,98.6467,VALID,0,VALID,23.129,VALID,47,VALID,0,
2009-09-16, 03:15:04,VALID,1008.26,VALID,0,VALID,98.6315,VALID,0,VALID,23.129,VALID,46,VALID,0,
2009-09-16, 03:16:04,VALID,1008.27,VALID,0,VALID,98.6391,VALID,0,VALID,23.129,VALID,47,VALID,0,
2009-09-16, 03:17:04,VALID,1008.26,VALID,0,VALID,98.6162,VALID,0,VALID,23.1502,VALID,46,VALID,0,
2009-09-16, 03:18:04,VALID,1008.26,VALID,0,VALID,98.6086,VALID,0,VALID,23.1502,VALID,47,VALID,0,
2009-09-16, 03:19:04,VALID,1008.29,VALID,0,VALID,98.6086,VALID,0,VALID,23.1502,VALID,46,VALID,0,
2009-09-16, 03:20:04,VALID,1008.29,VALID,0,VALID,98.6086,VALID,0,VALID,23.129,VALID,46,VALID,0,
2009-09-16, 03:21:04,VALID,1008.31,VALID,0,VALID,98.6391,VALID,0,VALID,23.1307,VALID,46,VALID,0,
2009-09-16, 03:22:04,VALID,1008.33,VALID,0,VALID,98.6162,VALID,0,VALID,23.1502,VALID,47,VALID,0,
2009-09-16, 03:23:04,VALID,1008.34,VALID,0,VALID,98.601,VALID,0,VALID,23.1307,VALID,46,VALID,0,
2009-09-16, 03:24:04,VALID,1008.36,VALID,0,VALID,98.601,VALID,0,VALID,23.1502,VALID,70,VALID,0.619531,
2009-09-16, 03:25:04,VALID,1008.33,VALID,0,VALID,98.6239,VALID,0,VALID,23.1307,VALID,69,VALID,0.560547,
2009-09-16, 03:26:04,VALID,1008.3,VALID,0,VALID,98.6391,VALID,0,VALID,23.1307,VALID,58,VALID,0.379687,
2009-09-16, 03:27:04,VALID,1008.28,VALID,0,VALID,98.601,VALID,0,VALID,23.1502,VALID,58,VALID,0.280859,
2009-09-16, 03:28:04,VALID,1008.27,VALID,0,VALID,98.6086,VALID,0,VALID,23.1307,VALID,58,VALID,0.225,
2009-09-16, 03:29:04,VALID,1008.26,VALID,0,VALID,98.6086,VALID,0,VALID,23.1502,VALID,58,VALID,0.216797,
2009-09-16, 03:30:04,VALID,1008.25,VALID,0,VALID,98.6086,VALID,0,VALID,23.1502,VALID,58,VALID,0.0359375,
2009-09-16, 03:31:04,VALID,1008.22,VALID,0,VALID,98.6086,VALID,0,VALID,23.1502,VALID,58,VALID,0.1875,
2009-09-16, 03:32:04,VALID,1008.24,VALID,0,VALID,98.6086,VALID,0,VALID,23.1697,VALID,58,VALID,0,
2009-09-16, 03:33:04,VALID,1008.2,VALID,0,VALID,98.601,VALID,0,VALID,23.1502,VALID,58,VALID,0.0667969,
2009-09-16, 03:34:04,VALID,1008.2,VALID,0,VALID,98.5781,VALID,0,VALID,23.1697,VALID,34,VALID,0.355859,
2009-09-16, 03:35:04,VALID,1008.2,VALID,0,VALID,98.5781,VALID,0,VALID,23.1679,VALID,34,VALID,0.096875,
2009-09-16, 03:36:04,VALID,1008.17,VALID,0,VALID,98.5857,VALID,0,VALID,23.1892,VALID,34,VALID,0,
2009-09-16, 03:37:04,VALID,1008.15,VALID,0,VALID,98.5857,VALID,0,VALID,23.1892,VALID,34,VALID,0.310156,
2009-09-16, 03:38:04,VALID,1008.16,VALID,0,VALID,98.5781,VALID,0,VALID,23.1892,VALID,35,VALID,0.410937,
2009-09-16, 03:39:04,VALID,1008.18,VALID,0,VALID,98.601,VALID,0,VALID,23.1892,VALID,47,VALID,0.507031,
2009-09-16, 03:40:04,VALID,1008.14,VALID,0,VALID,98.5934,VALID,0,VALID,23.1892,VALID,48,VALID,0.548828,
2009-09-16, 03:41:04,VALID,1008.14,VALID,0,VALID,98.5781,VALID,0,VALID,23.2087,VALID,69,VALID,0.476563,
2009-09-16, 03:42:04,VALID,1008.16,VALID,0,VALID,98.5781,VALID,0,VALID,23.1874,VALID,24,VALID,0.643359,
2009-09-16, 03:43:04,VALID,1008.18,VALID,0,VALID,98.5781,VALID,0,VALID,23.2282,VALID,60,VALID,0.315625,
2009-09-16, 03:44:04,VALID,1008.19,VALID,0,VALID,98.5857,VALID,0,VALID,23.2282,VALID,58,VALID,0.491797,
2009-09-16, 03:45:04,VALID,1008.18,VALID,0,VALID,98.5781,VALID,0,VALID,23.2282,VALID,48,VALID,0.149219,
2009-09-16, 03:46:04,VALID,1008.2,VALID,0,VALID,98.5857,VALID,0,VALID,23.2476,VALID,48,VALID,0.00273437,
2009-09-16, 03:47:04,VALID,1008.17,VALID,0,VALID,98.5476,VALID,0,VALID,23.2476,VALID,43,VALID,0.114453,
2009-09-16, 03:48:04,VALID,1008.21,VALID,0,VALID,98.5705,VALID,0,VALID,23.2671,VALID,43,VALID,0,
2009-09-16, 03:49:04,VALID,1008.18,VALID,0,VALID,98.5552,VALID,0,VALID,23.2671,VALID,43,VALID,0,
2009-09-16, 03:50:04,VALID,1008.16,VALID,0,VALID,98.5552,VALID,0,VALID,23.2671,VALID,43,VALID,0,
2009-09-16, 03:51:04,VALID,1008.1,VALID,0,VALID,98.5552,VALID,0,VALID,23.2866,VALID,356,VALID,0,
2009-09-16, 03:52:04,VALID,1008.09,VALID,0,VALID,98.5705,VALID,0,VALID,23.2671,VALID,301,VALID,0,
2009-09-16, 03:53:05,VALID,1008.05,VALID,0,VALID,98.5629,VALID,0,VALID,23.2866,VALID,301,VALID,0,
2009-09-16, 03:54:05,VALID,1008.04,VALID,0,VALID,98.5629,VALID,0,VALID,23.2866,VALID,309,VALID,0,
2009-09-16, 03:55:05,VALID,1008.08,VALID,0,VALID,98.5705,VALID,0,VALID,23.2866,VALID,349,VALID,0.255859,
2009-09-16, 03:56:05,VALID,1008.08,VALID,0,VALID,98.5781,VALID,0,VALID,23.2866,VALID,349,VALID,0.0574219,
2009-09-16, 03:57:05,VALID,1008.1,VALID,0,VALID,98.5857,VALID,0,VALID,23.2866,VALID,349,VALID,0.0183594,
2009-09-16, 03:58:05,VALID,1008.14,VALID,0,VALID,98.5781,VALID,0,VALID,23.3061,VALID,51,VALID,0.378906,
2009-09-16, 03:59:05,VALID,1008.16,VALID,0,VALID,98.5781,VALID,0,VALID,23.2866,VALID,100,VALID,0.339844,